Location: Unspecified
(47.6578°N, 23.5640°E)
Time: 04:22:34
(UTC+02:00)

ISS - Pass Details

Date: 02 December 2017
Orbit: 402 x 407 km, 51.6° (Epoch: 10 December)

Event Time Altitude Azimuth Distance (km) Brightness Sun altitude
Rises 17:22:30 0° 227° (SW) 2,320 1.7 -7.7°
Reaches altitude 10° 17:24:37 10° 221° (SW) 1,462 0.2 -8.1°
Maximum altitude 17:27:46 44° 147° (SSE) 570 -3.2 -8.6°
Enters shadow 17:30:33 13° 76° (ENE) 1,323 -1.9 -9.0°
